TimeCDT,TemperatureF,Dew PointF,Humidity,Sea Level PressureIn,VisibilityMPH,Wind Direction,Wind SpeedMPH,Gust SpeedMPH,PrecipitationIn,Events,Conditions,WindDirDegrees,DateUTC
12:58 AM,70.3,69.3,96,30.11,10.0,Variable,1.2,-,N/A,,Clear,0,2013-08-24 05:58:00
1:58 AM,68.9,68.5,99,30.13,10.0,Calm,Calm,-,N/A,,Clear,0,2013-08-24 06:58:00
2:28 AM,68.0,66.2,94,30.12,8.0,NE,2.3,-,N/A,,Clear,50,2013-08-24 07:28:00
2:43 AM,68.0,68.0,100,30.12,10.0,NW,2.3,-,N/A,,Clear,310,2013-08-24 07:43:00
2:48 AM,68.0,68.0,100,30.13,9.0,Calm,Calm,-,N/A,,Clear,0,2013-08-24 07:48:00
2:58 AM,66.9,66.7,99,30.13,10.0,NNE,2.3,-,N/A,,Clear,20,2013-08-24 07:58:00
3:03 AM,66.2,66.2,100,30.13,8.0,NNE,2.3,-,N/A,,Clear,30,2013-08-24 08:03:00
3:33 AM,68.0,68.0,100,30.14,10.0,Calm,Calm,-,N/A,,Clear,0,2013-08-24 08:33:00
3:43 AM,68.0,66.2,94,30.14,9.0,Calm,Calm,-,N/A,,Clear,0,2013-08-24 08:43:00
3:58 AM,66.6,66.2,99,30.14,8.0,North,2.3,-,N/A,,Clear,360,2013-08-24 08:58:00
4:38 AM,66.2,66.2,100,30.14,10.0,North,2.3,-,N/A,,Clear,360,2013-08-24 09:38:00
4:43 AM,66.2,66.2,100,30.14,9.0,North,1.2,-,N/A,,Clear,360,2013-08-24 09:43:00
4:58 AM,64.8,64.6,99,30.15,7.0,NNE,2.3,-,N/A,,Clear,20,2013-08-24 09:58:00
5:18 AM,66.2,66.2,100,30.15,3.0,NNE,2.3,-,N/A,,Clear,30,2013-08-24 10:18:00
5:33 AM,66.2,66.2,100,30.16,6.0,North,1.2,-,N/A,,Clear,360,2013-08-24 10:33:00
5:58 AM,66.2,66.2,100,30.16,8.0,North,2.3,-,N/A,,Clear,10,2013-08-24 10:58:00
6:03 AM,66.2,66.2,100,30.16,6.0,North,1.2,-,N/A,,Clear,10,2013-08-24 11:03:00
6:58 AM,66.4,66.4,100,30.18,5.0,Calm,Calm,-,N/A,,Clear,0,2013-08-24 11:58:00
7:58 AM,70.3,69.6,98,30.20,10.0,NNE,1.2,-,N/A,,Clear,20,2013-08-24 12:58:00
8:21 AM,71.6,69.8,94,30.21,10.0,Variable,2.3,-,N/A,Rain,Light Rain,0,2013-08-24 13:21:00
8:39 AM,73.4,69.8,88,30.21,10.0,Variable,3.5,-,N/A,,Clear,0,2013-08-24 13:39:00
8:41 AM,73.4,69.8,88,30.21,10.0,ESE,3.5,-,N/A,Rain,Light Rain,110,2013-08-24 13:41:00
8:58 AM,74.5,70.5,87,30.21,10.0,ENE,3.5,-,0.00,Rain,Light Rain,70,2013-08-24 13:58:00
8:59 AM,75.2,69.8,83,30.21,10.0,Variable,3.5,-,N/A,,Clear,0,2013-08-24 13:59:00
9:58 AM,78.3,71.2,79,30.21,10.0,ESE,4.6,-,0.00,,Clear,120,2013-08-24 14:58:00
10:13 AM,78.8,71.6,78,30.22,10.0,SE,4.6,-,N/A,Rain,Light Rain,130,2013-08-24 15:13:00
10:18 AM,80.6,71.6,74,30.21,10.0,ESE,4.6,-,N/A,,Clear,120,2013-08-24 15:18:00
10:32 AM,80.6,71.6,74,30.22,10.0,SE,5.8,-,N/A,Rain,Light Rain,140,2013-08-24 15:32:00
10:33 AM,80.6,71.6,74,30.22,10.0,SE,5.8,-,N/A,,Clear,130,2013-08-24 15:33:00
10:34 AM,80.6,71.6,74,30.22,10.0,ESE,4.6,-,N/A,Rain,Light Rain,120,2013-08-24 15:34:00
10:58 AM,81.7,72.3,73,30.22,10.0,ESE,5.8,-,0.00,Rain,Light Rain,110,2013-08-24 15:58:00
11:56 AM,84.2,71.6,66,30.21,10.0,Variable,4.6,-,N/A,,Clear,0,2013-08-24 16:56:00
11:58 AM,83.8,72.3,68,30.21,10.0,Variable,3.5,-,0.00,,Clear,0,2013-08-24 16:58:00
12:58 PM,85.5,70.7,61,30.20,10.0,ESE,9.2,-,N/A,,Partly Cloudy,110,2013-08-24 17:58:00
1:58 PM,87.3,70.0,56,30.19,10.0,East,4.6,-,N/A,,Clear,100,2013-08-24 18:58:00
2:53 PM,87.8,69.8,55,30.17,10.0,SE,6.9,-,N/A,Rain,Light Rain,130,2013-08-24 19:53:00
2:58 PM,88.0,69.1,53,30.17,10.0,East,5.8,-,0.00,Rain,Light Rain,90,2013-08-24 19:58:00
3:05 PM,89.6,69.8,52,30.17,10.0,SE,8.1,-,N/A,,Clear,130,2013-08-24 20:05:00
3:17 PM,89.6,69.8,52,30.17,10.0,East,5.8,-,N/A,Rain,Light Rain,90,2013-08-24 20:17:00
3:18 PM,89.6,69.8,52,30.17,10.0,East,4.6,-,N/A,,Clear,80,2013-08-24 20:18:00
3:19 PM,89.6,69.8,52,30.17,10.0,Variable,3.5,-,N/A,Rain,Light Rain,0,2013-08-24 20:19:00
3:29 PM,89.6,68.0,49,30.17,10.0,Variable,6.9,-,N/A,,Clear,0,2013-08-24 20:29:00
3:31 PM,89.6,68.0,49,30.17,10.0,Variable,6.9,-,N/A,,Light Drizzle,0,2013-08-24 20:31:00
3:33 PM,89.6,68.0,49,30.17,10.0,ENE,8.1,-,N/A,,Clear,70,2013-08-24 20:33:00
3:35 PM,89.6,68.0,49,30.16,10.0,East,8.1,-,N/A,,Light Drizzle,100,2013-08-24 20:35:00
3:56 PM,89.6,68.0,49,30.17,10.0,ESE,8.1,-,N/A,,Clear,110,2013-08-24 20:56:00
3:58 PM,88.9,68.9,51,30.17,10.0,East,8.1,-,0.00,,Clear,90,2013-08-24 20:58:00
4:04 PM,89.6,68.0,49,30.16,10.0,Variable,6.9,-,N/A,Rain,Light Rain,0,2013-08-24 21:04:00
4:14 PM,89.6,68.0,49,30.16,10.0,SE,4.6,-,N/A,,Clear,140,2013-08-24 21:14:00
4:20 PM,89.6,68.0,49,30.16,10.0,ESE,9.2,-,N/A,Rain,Light Rain,110,2013-08-24 21:20:00
4:31 PM,89.6,68.0,49,30.16,10.0,Variable,4.6,-,N/A,,Clear,0,2013-08-24 21:31:00
4:33 PM,89.6,68.0,49,30.16,10.0,Variable,3.5,-,N/A,,Light Drizzle,0,2013-08-24 21:33:00
4:45 PM,87.8,68.0,52,30.16,10.0,ESE,6.9,-,N/A,,Clear,110,2013-08-24 21:45:00
4:54 PM,87.8,68.0,52,30.16,10.0,East,9.2,-,N/A,Rain,Light Rain,100,2013-08-24 21:54:00
4:58 PM,88.5,67.8,50,30.16,10.0,Variable,6.9,-,0.00,Rain,Light Rain,0,2013-08-24 21:58:00
5:09 PM,87.8,68.0,52,30.16,10.0,East,8.1,-,N/A,,Clear,90,2013-08-24 22:09:00
5:58 PM,87.3,67.3,51,30.15,10.0,ESE,6.9,-,0.00,,Clear,110,2013-08-24 22:58:00
6:58 PM,84.0,70.0,63,30.15,10.0,ESE,4.6,-,N/A,,Clear,110,2013-08-24 23:58:00
7:58 PM,78.8,70.5,76,30.16,10.0,East,2.3,-,N/A,,Clear,90,2013-08-25 00:58:00
8:58 PM,75.0,70.0,84,30.18,10.0,ESE,2.3,-,N/A,,Clear,110,2013-08-25 01:58:00
9:58 PM,73.4,67.8,83,30.19,10.0,Calm,Calm,-,N/A,,Clear,0,2013-08-25 02:58:00
10:58 PM,72.1,66.9,84,30.20,10.0,Calm,Calm,-,N/A,,Clear,0,2013-08-25 03:58:00
11:58 PM,68.9,68.4,98,30.20,10.0,East,2.3,-,N/A,,Clear,100,2013-08-25 04:58:00